Location: Marstown
(39.5056°N, 77.0820°W)
Time: 01:18:54
(UTC-05:00)

OTV 5 (USA 277) - Visible Passes

Search period start: 22 January 2018 00:00
Search period end: 01 February 2018 00:00
Orbit: 404 x 417 km, 43.0° (Epoch: 07 September)

Date Brightness Start Highest point End Pass type
(mag) Time Alt. Az. Time Alt. Az. Time Alt. Az.
22 Jan ? 18:41:31 10° SW 18:44:33 32° SSE 18:44:58 31° SE visible
23 Jan ? 17:50:58 10° SSW 17:53:36 21° SE 17:56:14 10° E visible
23 Jan ? 19:27:17 10° WSW 19:29:15 32° WSW 19:29:15 32° WSW visible
24 Jan ? 18:36:15 10° WSW 18:39:35 71° SSE 18:40:43 38° E visible
25 Jan ? 17:45:18 10° SW 17:48:33 48° SSE 17:51:50 10° ENE visible
25 Jan ? 19:22:36 10° W 19:24:54 36° WNW 19:24:54 36° WNW visible
26 Jan ? 18:31:26 10° W 18:34:47 63° NNW 18:36:18 29° ENE visible
27 Jan ? 19:17:58 10° WNW 19:20:26 36° NW 19:20:26 36° NW visible
28 Jan ? 18:26:48 10° W 18:30:04 46° N 18:31:48 23° ENE visible
28 Jan ? 20:04:22 10° WNW 20:04:34 11° WNW 20:04:34 11° WNW visible
29 Jan ? 19:13:16 10° WNW 19:15:58 42° NNW 19:15:58 42° NNW visible
30 Jan ? 18:22:09 10° WNW 18:25:25 44° N 18:27:23 20° ENE visible
30 Jan ? 19:59:32 10° WNW 20:00:09 15° WNW 20:00:09 15° WNW visible
31 Jan ? 19:08:27 10° WNW 19:11:38 68° NNW 19:11:38 68° NNW visible
